Location: Azul
(36.7830°S, 59.8500°W)
Time: 16:26:57
(UTC-03:00)

ISS - Pass Details

Date: 02 March 2021
Orbit: 417 x 422 km, 51.6° (Epoch: 26 February)

Event Time Altitude Azimuth Distance (km) Brightness Sun altitude
Rises 21:08:04 0° 225° (SW) 2,404 1.4 -18.5°
Reaches altitude 10° 21:10:15 10° 218° (SW) 1,532 0.0 -18.9°
Maximum altitude 21:13:34 45° 144° (SE) 594 -3.2 -19.5°
Enters shadow 21:13:36 45° 141° (SE) 594 -3.2 -19.5°
